DELTA 1 DEB, 3811

Orbit data source: Space-Track

DELTA 1 DEB, 3811 is space debris in SSO originally from a launch on Sun, 15 Dec 1968 UTC launched from the Air Force Western Test Range (AFWTR). Debris objects in space refer to the collection of defunct objects orbiting the Earth. Examples of debris include non-operational satellites, rocket bodies, and fragments generated from explosions, collisions, or faulty payload assembly.

Loading next visibility...
Identifier
3811, 1968-114C
Orbit
SSO
Country
Flag of USUS
Related business
Manufacturer
Unknown
Mission
Spacecraft
Bus & Motor
Unknown
Mass
Unknown
Launch date (UTC)
1968-12-15 (58 years ago)
Launch vehicle
Unknown
Launch site
Air Force Western Test Range (AFWTR)
Object type
Payload
Rocket body
Debris
Shape & HBR
Unknown shape, 0.1 m
Radar Cross Section
Medium (>0.1 m² and <1 m²)

Expand to show TLE details & history
Last TLE update: 2 days ago

TLE from 2 days ago
0 DELTA 1 DEB
1  3811U 68114C   26171.32503417  .00000011  00000-0  26368-3 0  9995
2  3811 101.9035 111.8845 0137584 156.8607 355.5644 12.76392272678625
Epoch: 2026-06-20T07:48Z
TLE epoch observation values (Epoch: 2026-06-20T07:48:02.952Z)
Latitude
27.09324°
Longitude
-87.5097°
Altitude
1,252.947 km
Speed
7.28 km/s
True Right ascension
19h 52m 10s
True Declination
26° 57' 47"
Sunlit
Object was in daylight at epoch
Visualization orbit readout
Latitude
Unknown
Longitude
Unknown
Altitude
Unknown
Speed
Unknown
Apparent Right ascension
Unknown
Apparent Declination
Unknown
Sunlit
N/A
Visualization observer readout
Local Sidereal Time
23:27:17
Azimuth
Unknown
Elevation
Unknown
Doppler factor
Unknown
Orbital elements
Apogee altitude
1,459.906 km
Perigee altitude
1,247.155 km
Semi-major axis
7,731.667 km
Eccentricity
0.01376
Inclination
101.9035°
RAAN
111.8845°
Arg. of periapsis
156.8607°
True anomaly
355.44034°
Mean anomaly
355.5644°
Eccentric anomaly
355.50259°
Mean motion
3.19252 °/min
Orbital period
112.76 mins
BSTAR
0.00026368
Loading maneuver chart data...
Computing Atmospheric mass density...
Loading historical data...
Loading historical data...
Loading historical data...
Loading historical data...
Loading historical data...
Loading historical data...
Loading historical data...

Documentation

Showing up to 5 results
|